QPF
0.00 0.00 0.00 0.00 0.00 0.00 0.00 0.01 0.01 0.01 0.01 0.01 0.01 0.01 0.01 0.01 0.02 0.03 0.03 0.04 0.06 0.07 0.07 0.06 0.06 0.08 0.10 0.11 0.10 0.11 0.11 0.09 0.07 0.07 0.07 0.06 0.05 0.05
0.00 0.00 0.00 0.00 0.00 0.00 0.00 0.00 0.01 0.01 0.01 0.01 0.01 0.01 0.01 0.01 0.01 0.02 0.02 0.03 0.04 0.05 0.05 0.05 0.05 0.06 0.06 0.08 0.08 0.07 0.08 0.08 0.07 0.06 0.04 0.04 0.03 0.03
0.00 0.00 0.00 0.00 0.00 0.00 0.00 0.00 0.00 0.01 0.01 0.01 0.01 0.01 0.01 0.01 0.01 0.01 0.02 0.02 0.03 0.03 0.03 0.03 0.04 0.05 0.04 0.04 0.06 0.07 0.07 0.07 0.07 0.07 0.06 0.04 0.04 0.04
0.00 0.00 0.00 0.00 0.00 0.00 0.00 0.00 0.00 0.01 0.01 0.01 0.01 0.01 0.02 0.01 0.01 0.01 0.01 0.01 0.01 0.02 0.02 0.02 0.03 0.04 0.04 0.04 0.04 0.04 0.06 0.07 0.07 0.07 0.06 0.06 0.05 0.04
0.00 0.00 0.00 0.00 0.00 0.00 0.00 0.00 0.00 0.00 0.01 0.01 0.01 0.01 0.02 0.02 0.02 0.01 0.01 0.01 0.01 0.01 0.01 0.02 0.02 0.02 0.02 0.03 0.04 0.04 0.04 0.05 0.06 0.06 0.06 0.06 0.06 0.05
0.00 0.00 0.00 0.00 0.00 0.00 0.00 0.00 0.00 0.00 0.00 0.00 0.01 0.01 0.02 0.02 0.02 0.02 0.01 0.01 0.01 0.01 0.01 0.01 0.01 0.01 0.01 0.02 0.03 0.04 0.04 0.04 0.05 0.05 0.06 0.06 0.05 0.04
0.00 0.00 0.00 0.00 0.00 0.00 0.00 0.00 0.00 0.00 0.00 0.00 0.01 0.01 0.01 0.02 0.02 0.02 0.02 0.01 0.01 0.01 0.01 0.01 0.01 0.01 0.01 0.01 0.02 0.02 0.03 0.03 0.04 0.04 0.05 0.04 0.04 0.04
0.00 0.00 0.00 0.00 0.00 0.00 0.00 0.00 0.00 0.00 0.00 0.00 0.00 0.01 0.01 0.02 0.02 0.02 0.02 0.02 0.01 0.01 0.01 0.01 0.01 0.01 0.01 0.01 0.01 0.01 0.01 0.02 0.03 0.03 0.04 0.04 0.04 0.04
0.00 0.00 0.00 0.00 0.00 0.00 0.00 0.00 0.00 0.00 0.00 0.01 0.00 0.00 0.00 0.01 0.02 0.03 0.03 0.02 0.01 0.01 0.01 0.01 0.02 0.02 0.02 0.01 0.01 0.02 0.02 0.02 0.03 0.04 0.03 0.04 0.04 0.05
0.00 0.00 0.00 0.00 0.00 0.00 0.00 0.00 0.00 0.00 0.00 0.01 0.01 0.01 0.01 0.01 0.01 0.02 0.02 0.03 0.03 0.02 0.01 0.01 0.02 0.02 0.03 0.02 0.02 0.02 0.02 0.02 0.03 0.04 0.04 0.04 0.05 0.05
0.00 0.00 0.00 0.00 0.00 0.00 0.00 0.00 0.00 0.00 0.00 0.00 0.00 0.01 0.01 0.01 0.01 0.01 0.02 0.03 0.03 0.02 0.01 0.01 0.01 0.02 0.03 0.04 0.04 0.03 0.03 0.03 0.03 0.04 0.05 0.05 0.06 0.06
0.00 0.00 0.00 0.00 0.00 0.00 0.00 0.00 0.01 0.01 0.01 0.01 0.01 0.01 0.01 0.01 0.02 0.01 0.01 0.02 0.03 0.02 0.02 0.01 0.02 0.02 0.04 0.05 0.05 0.05 0.04 0.04 0.04 0.04 0.05 0.05 0.06 0.06
0.00 0.00 0.00 0.00 0.00 0.00 0.00 0.00 0.01 0.01 0.02 0.01 0.02 0.01 0.01 0.02 0.02 0.02 0.02 0.02 0.03 0.02 0.02 0.02 0.02 0.03 0.03 0.04 0.06 0.06 0.05 0.05 0.04 0.04 0.04 0.06 0.07 0.07
0.00 0.00 0.00 0.00 0.00 0.00 0.00 0.00 0.01 0.03 0.03 0.03 0.03 0.03 0.02 0.03 0.02 0.02 0.02 0.03 0.03 0.03 0.02 0.03 0.03 0.03 0.04 0.03 0.04 0.06 0.06 0.06 0.05 0.04 0.04 0.06 0.08 0.10
0.00 0.00 0.00 0.00 0.00 0.00 0.00 0.01 0.01 0.02 0.04 0.04 0.04 0.04 0.04 0.02 0.02 0.02 0.03 0.03 0.03 0.03 0.04 0.04 0.04 0.04 0.05 0.04 0.03 0.04 0.06 0.08 0.08 0.06 0.06 0.06 0.07 0.08
0.00 0.00 0.00 0.00 0.00 0.00 0.00 0.00 0.01 0.01 0.02 0.03 0.04 0.04 0.03 0.02 0.02 0.02 0.02 0.02 0.03 0.04 0.05 0.05 0.04 0.04 0.05 0.05 0.05 0.05 0.05 0.07 0.09 0.10 0.09 0.09 0.09 0.09
0.00 0.00 0.00 0.00 0.00 0.00 0.00 0.00 0.00 0.00 0.01 0.02 0.04 0.03 0.01 0.01 0.02 0.03 0.03 0.03 0.04 0.05 0.06 0.06 0.06 0.06 0.06 0.07 0.07 0.06 0.06 0.07 0.08 0.10 0.11 0.12 0.12 0.12
0.00 0.00 0.00 0.00 0.00 0.00 0.00 0.00 0.00 0.00 0.00 0.01 0.02 0.02 0.01 0.01 0.01 0.03 0.04 0.04 0.05 0.06 0.07 0.08 0.08 0.08 0.09 0.09 0.09 0.08 0.07 0.07 0.08 0.10 0.11 0.12 0.13 0.13
0.00 0.00 0.01 0.01 0.01 0.01 0.01 0.00 0.00 0.00 0.01 0.01 0.01 0.02 0.02 0.02 0.03 0.04 0.05 0.05 0.06 0.07 0.07 0.08 0.09 0.09 0.10 0.11 0.11 0.10 0.09 0.08 0.10 0.12 0.12 0.12 0.12 0.13
0.00 0.01 0.01 0.01 0.01 0.01 0.01 0.01 0.01 0.01 0.01 0.01 0.01 0.01 0.01 0.01 0.03 0.05 0.06 0.06 0.07 0.07 0.08 0.07 0.08 0.09 0.08 0.10 0.13 0.14 0.14 0.12 0.11 0.14 0.14 0.15 0.16 0.18
0.01 0.01 0.01 0.01 0.00 0.00 0.00 0.00 0.01 0.01 0.01 0.01 0.01 0.01 0.01 0.01 0.02 0.05 0.07 0.08 0.08 0.07 0.08 0.08 0.07 0.10 0.11 0.12 0.14 0.13 0.16 0.18 0.17 0.14 0.15 0.18 0.20 0.18
0.01 0.01 0.01 0.00 0.00 0.00 0.00 0.01 0.01 0.01 0.01 0.01 0.01 0.01 0.01 0.01 0.02 0.03 0.06 0.08 0.10 0.11 0.12 0.12 0.11 0.11 0.11 0.12 0.12 0.12 0.16 0.21 0.23 0.22 0.23 0.21 0.19 0.18
0.02 0.01 0.01 0.01 0.01 0.01 0.01 0.01 0.01 0.01 0.02 0.02 0.01 0.02 0.02 0.01 0.02 0.03 0.04 0.06 0.08 0.12 0.13 0.12 0.12 0.11 0.11 0.11 0.12 0.13 0.15 0.16 0.16 0.17 0.20 0.23 0.22 0.20
MSLP
1018.03 1018.05 1018.09 1018.11 1018.12 1018.07 1017.96 1017.78 1017.53 1017.21 1016.85 1016.45 1016.04 1015.64 1015.26 1014.92 1014.64 1014.43 1014.30 1014.27 1014.33 1014.49 1014.72 1015.02 1015.35 1015.72 1016.09 1016.45 1016.80 1017.14 1017.47 1017.82 1018.18 1018.56 1018.97 1019.39 1019.82 1020.25
1018.05 1018.06 1018.07 1018.07 1018.04 1017.97 1017.85 1017.68 1017.45 1017.18 1016.87 1016.53 1016.17 1015.81 1015.45 1015.12 1014.82 1014.57 1014.39 1014.29 1014.28 1014.36 1014.52 1014.75 1015.03 1015.34 1015.67 1015.98 1016.29 1016.58 1016.87 1017.16 1017.47 1017.80 1018.16 1018.53 1018.93 1019.32
1017.96 1017.96 1017.94 1017.92 1017.86 1017.77 1017.64 1017.48 1017.28 1017.05 1016.80 1016.53 1016.24 1015.94 1015.63 1015.32 1015.03 1014.77 1014.55 1014.40 1014.33 1014.34 1014.43 1014.59 1014.81 1015.06 1015.32 1015.58 1015.84 1016.08 1016.32 1016.56 1016.82 1017.09 1017.39 1017.72 1018.06 1018.42
1017.79 1017.77 1017.73 1017.68 1017.60 1017.49 1017.36 1017.20 1017.02 1016.84 1016.64 1016.44 1016.22 1015.99 1015.74 1015.48 1015.22 1014.96 1014.74 1014.55 1014.43 1014.38 1014.40 1014.49 1014.63 1014.81 1015.00 1015.21 1015.40 1015.59 1015.78 1015.97 1016.18 1016.40 1016.65 1016.93 1017.23 1017.54
1017.55 1017.52 1017.47 1017.40 1017.30 1017.17 1017.02 1016.87 1016.71 1016.55 1016.40 1016.26 1016.11 1015.94 1015.76 1015.55 1015.33 1015.10 1014.88 1014.68 1014.53 1014.42 1014.38 1014.39 1014.46 1014.56 1014.68 1014.81 1014.94 1015.07 1015.21 1015.35 1015.51 1015.69 1015.90 1016.14 1016.40 1016.68
1017.30 1017.27 1017.21 1017.12 1016.99 1016.85 1016.69 1016.52 1016.36 1016.22 1016.10 1015.99 1015.89 1015.78 1015.65 1015.50 1015.33 1015.14 1014.93 1014.74 1014.56 1014.42 1014.32 1014.26 1014.25 1014.26 1014.30 1014.35 1014.41 1014.48 1014.56 1014.66 1014.77 1014.92 1015.10 1015.30 1015.54 1015.79
1017.06 1017.02 1016.96 1016.85 1016.72 1016.55 1016.37 1016.19 1016.02 1015.87 1015.75 1015.66 1015.58 1015.51 1015.42 1015.32 1015.19 1015.04 1014.86 1014.68 1014.49 1014.32 1014.18 1014.06 1013.97 1013.90 1013.85 1013.82 1013.81 1013.81 1013.83 1013.87 1013.95 1014.07 1014.22 1014.41 1014.63 1014.87
1016.84 1016.80 1016.73 1016.62 1016.48 1016.29 1016.09 1015.88 1015.68 1015.51 1015.37 1015.27 1015.20 1015.14 1015.08 1015.01 1014.92 1014.80 1014.65 1014.48 1014.30 1014.11 1013.93 1013.76 1013.60 1013.46 1013.33 1013.22 1013.12 1013.06 1013.02 1013.02 1013.06 1013.15 1013.28 1013.46 1013.67 1013.91
1016.63 1016.59 1016.52 1016.41 1016.26 1016.06 1015.83 1015.59 1015.36 1015.15 1014.98 1014.85 1014.75 1014.69 1014.63 1014.58 1014.50 1014.41 1014.29 1014.14 1013.96 1013.77 1013.57 1013.36 1013.15 1012.94 1012.74 1012.56 1012.40 1012.26 1012.17 1012.12 1012.12 1012.18 1012.30 1012.47 1012.68 1012.92
1016.39 1016.36 1016.30 1016.19 1016.03 1015.82 1015.58 1015.31 1015.04 1014.79 1014.58 1014.40 1014.27 1014.17 1014.10 1014.04 1013.98 1013.89 1013.79 1013.65 1013.49 1013.29 1013.08 1012.85 1012.61 1012.36 1012.11 1011.87 1011.66 1011.47 1011.32 1011.23 1011.19 1011.23 1011.32 1011.47 1011.68 1011.92
1016.10 1016.07 1016.02 1015.92 1015.76 1015.54 1015.28 1015.00 1014.70 1014.41 1014.15 1013.93 1013.76 1013.62 1013.52 1013.44 1013.36 1013.28 1013.17 1013.04 1012.89 1012.70 1012.49 1012.25 1012.00 1011.73 1011.46 1011.19 1010.94 1010.71 1010.53 1010.40 1010.33 1010.32 1010.39 1010.52 1010.71 1010.95
1015.72 1015.70 1015.65 1015.56 1015.41 1015.19 1014.93 1014.63 1014.31 1013.99 1013.70 1013.44 1013.22 1013.05 1012.91 1012.80 1012.69 1012.59 1012.48 1012.35 1012.20 1012.02 1011.81 1011.59 1011.34 1011.08 1010.81 1010.54 1010.27 1010.03 1009.82 1009.65 1009.55 1009.51 1009.53 1009.63 1009.79 1010.01
1015.26 1015.24 1015.19 1015.10 1014.96 1014.75 1014.48 1014.18 1013.86 1013.53 1013.21 1012.93 1012.68 1012.47 1012.29 1012.14 1012.01 1011.88 1011.75 1011.60 1011.45 1011.28 1011.09 1010.88 1010.66 1010.42 1010.17 1009.91 1009.65 1009.41 1009.18 1008.99 1008.85 1008.77 1008.75 1008.81 1008.92 1009.10
1014.70 1014.68 1014.64 1014.55 1014.40 1014.20 1013.94 1013.65 1013.33 1013.00 1012.68 1012.39 1012.13 1011.90 1011.69 1011.51 1011.34 1011.18 1011.02 1010.85 1010.69 1010.51 1010.33 1010.15 1009.95 1009.75 1009.53 1009.30 1009.07 1008.84 1008.61 1008.40 1008.23 1008.10 1008.03 1008.02 1008.08 1008.20
1014.07 1014.05 1014.00 1013.90 1013.76 1013.56 1013.31 1013.03 1012.72 1012.41 1012.11 1011.83 1011.57 1011.33 1011.11 1010.91 1010.71 1010.52 1010.32 1010.13 1009.95 1009.76 1009.59 1009.42 1009.25 1009.08 1008.90 1008.70 1008.50 1008.28 1008.05 1007.83 1007.63 1007.45 1007.32 1007.25 1007.24 1007.30
1013.38 1013.35 1013.29 1013.19 1013.04 1012.84 1012.60 1012.33 1012.05 1011.77 1011.50 1011.25 1011.01 1010.78 1010.57 1010.36 1010.14 1009.92 1009.69 1009.47 1009.26 1009.05 1008.87 1008.70 1008.55 1008.40 1008.25 1008.09 1007.91 1007.71 1007.48 1007.25 1007.01 1006.79 1006.60 1006.46 1006.38 1006.38
1012.64 1012.60 1012.53 1012.41 1012.25 1012.04 1011.81 1011.56 1011.31 1011.06 1010.84 1010.63 1010.43 1010.24 1010.05 1009.84 1009.62 1009.38 1009.13 1008.88 1008.63 1008.40 1008.20 1008.02 1007.87 1007.73 1007.60 1007.45 1007.29 1007.10 1006.87 1006.62 1006.35 1006.09 1005.85 1005.64 1005.50 1005.44
1011.86 1011.81 1011.72 1011.58 1011.40 1011.18 1010.95 1010.71 1010.49 1010.30 1010.12 1009.97 1009.83 1009.69 1009.54 1009.35 1009.14 1008.90 1008.63 1008.35 1008.07 1007.81 1007.57 1007.37 1007.21 1007.06 1006.93 1006.80 1006.64 1006.45 1006.22 1005.96 1005.67 1005.37 1005.08 1004.83 1004.64 1004.53
1011.02 1010.96 1010.85 1010.69 1010.48 1010.26 1010.02 1009.80 1009.61 1009.46 1009.34 1009.26 1009.18 1009.11 1009.00 1008.86 1008.67 1008.43 1008.16 1007.86 1007.55 1007.26 1006.99 1006.77 1006.58 1006.42 1006.28 1006.14 1005.98 1005.79 1005.56 1005.29 1004.99 1004.67 1004.36 1004.08 1003.86 1003.72
1010.10 1010.03 1009.90 1009.71 1009.49 1009.25 1009.02 1008.81 1008.66 1008.55 1008.50 1008.48 1008.48 1008.47 1008.42 1008.33 1008.17 1007.96 1007.69 1007.38 1007.06 1006.74 1006.45 1006.20 1005.98 1005.81 1005.65 1005.51 1005.35 1005.16 1004.94 1004.67 1004.38 1004.06 1003.75 1003.46 1003.24 1003.09
1009.11 1009.01 1008.86 1008.65 1008.40 1008.16 1007.93 1007.75 1007.63 1007.58 1007.59 1007.64 1007.71 1007.76 1007.78 1007.74 1007.63 1007.44 1007.19 1006.89 1006.56 1006.24 1005.93 1005.66 1005.43 1005.24 1005.08 1004.94 1004.79 1004.61 1004.41 1004.16 1003.89 1003.60 1003.31 1003.05 1002.84 1002.71
1008.03 1007.90 1007.72 1007.49 1007.23 1006.99 1006.78 1006.63 1006.55 1006.55 1006.62 1006.74 1006.88 1007.00 1007.08 1007.10 1007.03 1006.88 1006.66 1006.38 1006.06 1005.74 1005.43 1005.16 1004.93 1004.74 1004.59 1004.46 1004.33 1004.18 1004.01 1003.81 1003.57 1003.33 1003.08 1002.87 1002.70 1002.60
1006.87 1006.71 1006.50 1006.25 1006.00 1005.77 1005.59 1005.48 1005.45 1005.51 1005.64 1005.82 1006.02 1006.21 1006.35 1006.41 1006.40 1006.29 1006.10 1005.84 1005.55 1005.25 1004.96 1004.70 1004.49 1004.32 1004.19 1004.08 1003.98 1003.88 1003.76 1003.61 1003.44 1003.25 1003.07 1002.91 1002.80 1002.75
Thickness
5643 5641 5639 5639 5637 5637 5636 5636 5636 5637 5641 5646 5651 5658 5661 5665 5669 5673 5676 5680 5684 5687 5689 5691 5694 5697 5699 5700 5700 5702 5702 5703 5703 5704 5704 5704 5704 5704
5637 5634 5633 5631 5630 5629 5629 5628 5628 5629 5632 5637 5640 5645 5650 5655 5659 5663 5667 5671 5676 5679 5682 5685 5688 5691 5693 5694 5696 5698 5699 5700 5701 5702 5703 5703 5704 5704
5631 5629 5626 5625 5623 5622 5621 5620 5620 5620 5623 5628 5630 5634 5638 5643 5649 5653 5658 5662 5667 5671 5674 5678 5681 5684 5687 5689 5691 5693 5695 5697 5698 5700 5701 5702 5703 5704
5625 5622 5620 5618 5616 5614 5613 5612 5612 5613 5614 5618 5622 5624 5628 5632 5637 5642 5648 5653 5657 5662 5666 5670 5674 5677 5680 5683 5686 5689 5691 5693 5695 5697 5699 5700 5701 5702
5620 5617 5614 5612 5610 5608 5606 5605 5605 5606 5606 5608 5612 5615 5618 5622 5626 5632 5638 5642 5648 5653 5657 5662 5666 5671 5674 5677 5680 5683 5686 5689 5692 5694 5696 5698 5699 5700
5616 5612 5609 5606 5604 5602 5600 5599 5598 5598 5598 5599 5602 5605 5608 5612 5615 5620 5626 5631 5637 5643 5649 5654 5658 5662 5667 5671 5674 5678 5680 5683 5687 5689 5692 5694 5695 5698
5612 5608 5605 5602 5600 5597 5595 5593 5592 5591 5590 5591 5593 5596 5599 5601 5605 5609 5614 5619 5625 5632 5638 5644 5649 5654 5658 5663 5667 5671 5675 5679 5682 5685 5687 5690 5692 5694
5608 5605 5601 5598 5596 5593 5591 5588 5586 5584 5584 5584 5586 5587 5591 5593 5595 5598 5602 5607 5614 5621 5625 5632 5638 5644 5649 5655 5661 5665 5670 5674 5677 5680 5683 5686 5688 5691
5604 5600 5597 5595 5591 5587 5585 5583 5581 5579 5578 5578 5579 5581 5583 5585 5587 5589 5592 5597 5603 5609 5612 5621 5627 5634 5641 5647 5653 5658 5663 5668 5672 5675 5679 5682 5685 5687
5601 5597 5592 5589 5586 5581 5579 5577 5575 5574 5573 5572 5573 5575 5575 5577 5578 5581 5584 5588 5593 5597 5602 5609 5618 5624 5631 5638 5645 5651 5656 5661 5666 5670 5674 5677 5680 5683
5599 5594 5589 5585 5582 5576 5573 5571 5569 5569 5567 5566 5566 5566 5567 5568 5569 5571 5574 5578 5585 5590 5594 5599 5608 5614 5622 5630 5637 5643 5648 5654 5659 5664 5668 5672 5675 5677
5596 5591 5586 5582 5578 5572 5568 5565 5563 5563 5561 5560 5559 5560 5560 5562 5563 5564 5568 5571 5576 5582 5587 5591 5598 5603 5612 5621 5628 5634 5640 5646 5652 5657 5662 5666 5669 5670
5591 5588 5584 5579 5573 5568 5563 5560 5559 5557 5554 5552 5552 5553 5554 5555 5557 5559 5561 5564 5568 5574 5579 5582 5589 5594 5601 5610 5617 5624 5630 5637 5644 5649 5655 5659 5663 5666
5587 5584 5580 5575 5569 5564 5560 5557 5554 5549 5547 5546 5546 5547 5549 5550 5552 5553 5556 5558 5562 5567 5571 5574 5580 5586 5591 5599 5606 5613 5620 5627 5634 5641 5647 5651 5655 5659
5584 5580 5575 5570 5565 5561 5557 5553 5549 5546 5544 5542 5543 5544 5544 5545 5546 5547 5550 5552 5555 5559 5563 5567 5572 5578 5583 5591 5598 5604 5610 5617 5624 5632 5638 5643 5649 5653
5579 5575 5570 5565 5560 5556 5553 5551 5547 5544 5541 5540 5540 5540 5539 5539 5540 5542 5544 5546 5549 5554 5557 5561 5566 5571 5576 5583 5589 5596 5602 5608 5616 5622 5628 5635 5641 5647
5574 5569 5565 5561 5557 5554 5551 5547 5544 5541 5538 5537 5535 5534 5534 5535 5536 5537 5538 5541 5544 5549 5553 5556 5559 5564 5570 5576 5582 5590 5595 5601 5607 5612 5618 5626 5633 5639
5567 5564 5562 5558 5554 5551 5548 5545 5542 5539 5537 5534 5532 5532 5531 5532 5533 5534 5534 5537 5541 5545 5548 5551 5554 5558 5563 5571 5576 5584 5589 5595 5600 5605 5611 5618 5625 5631
5562 5561 5558 5555 5551 5548 5544 5541 5540 5538 5535 5532 5531 5530 5530 5530 5530 5531 5533 5535 5538 5542 5545 5548 5550 5555 5561 5568 5575 5578 5584 5589 5593 5598 5604 5611 5618 5624
5560 5558 5555 5552 5548 5545 5542 5539 5537 5535 5532 5531 5529 5529 5528 5528 5529 5530 5532 5533 5536 5539 5542 5545 5548 5553 5558 5564 5569 5574 5578 5583 5588 5594 5599 5604 5609 5615
5559 5555 5552 5549 5546 5543 5540 5537 5534 5532 5530 5529 5528 5528 5527 5527 5528 5529 5530 5530 5532 5536 5540 5544 5548 5550 5553 5557 5563 5569 5573 5577 5583 5589 5594 5597 5602 5608
5558 5555 5552 5548 5545 5542 5539 5536 5534 5531 5529 5528 5527 5527 5526 5526 5527 5527 5528 5529 5531 5534 5538 5541 5543 5545 5549 5554 5560 5565 5568 5571 5575 5580 5586 5593 5599 5605
5555 5552 5550 5547 5544 5541 5538 5535 5533 5530 5528 5527 5526 5525 5525 5525 5525 5526 5527 5528 5530 5532 5535 5538 5541 5544 5548 5552 5557 5561 5564 5567 5570 5574 5578 5584 5592 5600